Location: *
(55.6049°S, 142.1985°W)
Time: 16:07:01
(UTC+00:00)

X-37B - Pass Details

Date: 12 May 2021
Orbit: 386 x 389 km, 45.0° (Epoch: 10 June)

Event Time Altitude Azimuth Distance (km) Brightness Sun altitude
Exits shadow 15:07:31 - 341° (NNW) 1,487 3.4 -17.5°
Reaches altitude 10° 15:07:48 10° 346° (NNW) 1,436 3.4 -17.4°
Maximum altitude 15:09:07 12° 10° (N) 1,324 3.5 -17.3°
Drops below altitude 10° 15:10:26 10° 34° (NE) 1,438 4.0 -17.1°
Sets 15:13:32 0° 66° (ENE) 2,297 6.0 -16.6°
